Location: Brabourne
(51.1333°N, 1.0000°E)
Time: 12:41:17
(UTC+00:00)

IRS-1D - Pass Details

Date: 21 October 2021
Orbit: 739 x 817 km, 98.6° (Epoch: 30 November)

Event Time Altitude Azimuth Distance (km) Brightness Sun altitude
Rises 03:51:07 0° 8° (N) 3,291 7.1 -25.4°
Reaches altitude 10° 03:53:45 10° 357° (N) 2,345 6.1 -25.0°
Enters shadow 03:56:12 22° 333° (NNW) 1,649 5.1 -24.6°
